Location: Andrest
(43.3200°N, 0.0641°E)
Time: 18:36:31
(UTC+00:00)

CZ-2C R/B - Visible Passes

Search period start: 16 April 2021 00:00
Search period end: 26 April 2021 00:00
Orbit: 703 x 908 km, 98.1° (Epoch: 15 April)

Date Brightness Start Highest point End Pass type
(mag) Time Alt. Az. Time Alt. Az. Time Alt. Az.
16 Apr 5.7 19:07:46 10° SW 19:11:15 20° W 19:14:44 10° NW visible
19 Apr 6.2 19:35:25 10° WSW 19:36:41 11° W 19:37:56 10° WNW visible
23 Apr 6.3 19:35:51 10° W 19:36:55 11° W 19:37:59 10° WNW visible
